TimeMDT,TemperatureF,Dew PointF,Humidity,Sea Level PressureIn,VisibilityMPH,Wind Direction,Wind SpeedMPH,Gust SpeedMPH,PrecipitationIn,Events,Conditions,WindDirDegrees,DateUTC
12:53 AM,73.0,46.0,38,29.99,10.0,SSW,4.6,-,N/A,,Scattered Clouds,200,2013-09-05 06:53:00
1:53 AM,71.1,46.9,42,29.98,10.0,SW,3.5,-,N/A,,Scattered Clouds,220,2013-09-05 07:53:00
2:53 AM,68.0,48.0,49,29.98,10.0,Calm,Calm,-,N/A,,Clear,0,2013-09-05 08:53:00
3:53 AM,69.1,48.9,49,29.98,10.0,SSE,3.5,-,N/A,,Clear,150,2013-09-05 09:53:00
4:53 AM,66.9,50.0,54,29.98,10.0,Calm,Calm,-,N/A,,Clear,0,2013-09-05 10:53:00
5:53 AM,64.9,48.9,56,30.00,10.0,Calm,Calm,-,N/A,,Clear,0,2013-09-05 11:53:00
6:53 AM,63.0,50.0,63,30.02,10.0,NNW,5.8,-,N/A,,Clear,340,2013-09-05 12:53:00
7:53 AM,72.0,50.0,46,30.04,10.0,NNE,6.9,-,N/A,,Clear,20,2013-09-05 13:53:00
8:53 AM,77.0,52.0,42,30.04,10.0,North,4.6,-,N/A,,Clear,10,2013-09-05 14:53:00
9:53 AM,81.0,54.0,39,30.05,10.0,Calm,Calm,-,N/A,,Clear,0,2013-09-05 15:53:00
10:53 AM,84.9,55.0,36,30.03,10.0,Variable,3.5,-,N/A,,Clear,0,2013-09-05 16:53:00
11:53 AM,89.1,51.1,27,30.02,10.0,South,8.1,-,N/A,,Clear,170,2013-09-05 17:53:00
12:53 PM,91.9,46.9,21,30.00,10.0,East,9.2,-,N/A,,Clear,90,2013-09-05 18:53:00
1:53 PM,91.9,44.1,19,29.97,10.0,SE,4.6,-,N/A,,Scattered Clouds,130,2013-09-05 19:53:00
2:53 PM,93.9,39.9,15,29.95,10.0,SE,10.4,21.9,N/A,,Clear,130,2013-09-05 20:53:00
3:53 PM,93.9,36.0,13,29.94,10.0,ENE,10.4,17.3,N/A,,Clear,70,2013-09-05 21:53:00
4:53 PM,93.9,39.9,15,29.93,10.0,ESE,8.1,-,N/A,,Clear,110,2013-09-05 22:53:00
5:53 PM,93.0,36.0,13,29.93,10.0,East,5.8,-,N/A,,Clear,100,2013-09-05 23:53:00
6:53 PM,90.0,36.0,15,29.93,10.0,ESE,5.8,-,N/A,,Clear,120,2013-09-06 00:53:00
7:53 PM,84.9,37.9,19,29.93,10.0,East,4.6,-,N/A,,Clear,80,2013-09-06 01:53:00
8:53 PM,82.0,44.1,26,29.95,10.0,SE,5.8,-,N/A,,Clear,130,2013-09-06 02:53:00
9:53 PM,82.0,46.9,29,29.96,10.0,SE,4.6,-,N/A,,Clear,130,2013-09-06 03:53:00
10:53 PM,79.0,48.0,34,29.98,10.0,SE,4.6,-,N/A,,Scattered Clouds,140,2013-09-06 04:53:00
11:53 PM,79.0,55.9,45,29.97,10.0,SSE,8.1,-,N/A,,Clear,160,2013-09-06 05:53:00